Regional Weather Roundup
Issued by NWS

Home | Current Version | Previous Version | Graphics & Text | Print | Product List | Glossary On
Versions: 1 2 3 4 5 6 7 8 9 10 11 12 13 14 15 16 17 18 19 20 21 22 23 24 25 26 27 28 29 30 31 32 33 34 35 36 37 38 39 40 41 42 43 44 45 46 47 48 49 50
000
ASUS45 KCYS 270810
RWRWY

WYOMING REGIONAL WEATHER ROUNDUP
NATIONAL WEATHER SERVICE CHEYENNE WY
200 AM MDT MON APR 27 2015

NOTE:  "FAIR" INDICATES FEW OR NO CLOUDS BELOW 12,000 FEET
WITH NO SIGNIFICANT WEATHER AND/OR OBSTRUCTIONS TO VISIBILITY.

WYZ001-270900-
YELLOWSTONE NATIONAL PARK

CITY           SKY/WX    TMP DP  RH WIND       PRES   REMARKS
LK YELLOWSTONE   N/A     30  27  88 CALM      30.23R
W YELLOWSTONE  NOT AVBL

$$
WYZ002>013-054>058-071-098>099-270900-
NORTHERN WYOMING

CITY           SKY/WX    TMP DP  RH WIND       PRES   REMARKS
JACKSON        CLOUDY    37  36  93 N5        30.18S WCI  34
CODY           CLOUDY    34  34 100 NE7       30.23S WCI  28
GREYBULL       LGT RAIN  39  33  79 NW8       30.22  WCI  33
WORLAND        CLOUDY    38  33  82 N7        30.23R WCI  33
SHERIDAN       CLOUDY    35  33  92 W5        30.25F WCI  31
BUFFALO        CLOUDY    34  32  92 N10       30.23R FOG     WCI  26
GILLETTE       CLOUDY    34  33  96 N10       30.22S WCI  26
HULETT         MIX PCPN  36  34  93 N6        30.22S WCI  31
NEWCASTLE      DRIZZLE   41  41 100 NW8       30.19S

$$
WYZ014>020-022>026-101>103-270900-
CENTRAL WYOMING

CITY           SKY/WX    TMP DP  RH WIND       PRES   REMARKS
BIG PINEY      CLOUDY    39  30  70 N8        30.15  WCI  33
PINEDALE       CLOUDY    36  34  93 CALM      30.16R
DUBOIS         FLURRIES  32  32 100 SE7       30.16S WCI  26
LANDER         LGT RAIN  37  35  92 N6        30.17R WCI  32
RIVERTON       CLOUDY    37  32  82 NE12      30.19R WCI  29
CASPER         MIX PCPN  34  32  92 NE7       30.19S WCI  28
DOUGLAS        CLOUDY    39  38  96 W10       30.17R WCI  32

$$
WYZ021-027>030-104>119-270900-
SOUTHERN WYOMING

CITY           SKY/WX    TMP DP  RH WIND       PRES   REMARKS
EVANSTON       CLOUDY    34  30  85 W3        30.17
KEMMERER       DRIZZLE   34  32  93 NW3       30.17R
FORT BRIDGER   SNOW      34  34 100 W8        30.19R VSB 1/2 WCI  27
ROCK SPRINGS   FLURRIES  35  32  88 NE15      30.13S WCI  25
DIXON          FAIR      37  34  90 E3        30.08R
RAWLINS        CLOUDY    37  32  82 NE12      30.11S WCI  29
SARATOGA       FAIR      34  34 100 SW6       30.09R WCI  29
LARAMIE        CLOUDY    37  32  82 SE8       30.11S WCI  31
CHEYENNE       LGT SNOW  33  32  96 CALM      30.13F FOG
TORRINGTON     LGT RAIN  42  40  92 SE3       30.15S
PINE BLUFFS    CLOUDY    37  36  93 CALM      30.14F

$$


USA.gov is the U.S. government's official web portal to all federal, state and local government web resources and services.